HUBBLE
1 20580U 90037B 10077.15135467 .00000613 00000-0 34193-4 0 5373
2 20580 028.4686 114.1449 0003251 309.5084 050.5268 15.00922806891068
ISS
1 25544U 98067A 10078.03626584 .00024786 00000-0 17248-3 0 7990
2 25544 051.6474 333.4280 0007746 067.0877 023.4595 15.74194950649272
CO-58
1 28895U 05043F 10077.71493048 .00000387 00000-0 90164-4 0 5397
2 28895 098.0270 325.1269 0017444 205.6793 154.3577 14.59861481233782
FALCON
1 30776U 07006E 10076.84810829 .00000949 00000-0 71215-4 0 7877
2 30776 035.4334 238.7830 0000457 017.1842 342.8896 15.03526439166301
MAST
1 31126U 07012K 10077.63320789 .00000067 00000-0 25410-4 0 8219
2 31126 097.9486 124.2809 0094871 147.0287 213.6879 14.53563547154900
CAPE1
1 31130U 07012P 10077.52802630 .00000229 00000-0 63285-4 0 8405
2 31130 097.9498 121.7722 0103422 154.7823 205.8495 14.52147812154503
COMPASS
1 32787U 08021E 10077.34806976 .00000698 00000-0 94987-4 0 6223
2 32787 097.9032 143.3223 0014956 218.8608 141.1594 14.81793051102046
AAUSAT2
1 32788U 08021F 10076.68453991 .00000727 00000-0 98357-4 0 6166
2 32788 097.9045 142.7751 0014334 222.3876 137.6222 14.81929452101950
DO-64
1 32789U 08021G 10076.70075396 .00001083 00000-0 14296-3 0 6322
2 32789 097.9092 143.1673 0015086 219.1357 140.8728 14.82017414101958
CO-66
1 32791U 08021J 10076.68182577 .00000511 00000-0 71738-4 0 6131
2 32791 097.9060 142.6885 0015176 219.0635 140.9473 14.81592083101905
RS-30
1 32953U 08025A 10077.57864575 .00000010 00000-0 00000 0 0 5513
2 32953 082.4967 086.0250 0017664 303.3710 056.5685 12.43004331 82480
TACSAT-3
1 35001U 09028A 10077.33931542 .00008895 00000-0 21590-3 0 2402
2 35001 040.4555 039.4594 0022174 040.5552 319.6911 15.40758229 46615
PHARMSAT
1 35002U 09028B 10077.26168695 .00007870 00000-0 18758-3 0 2286
2 35002 040.4697 038.2820 0024127 045.4710 314.8070 15.41374031 46611
HAWKSAT1
1 35003U 09028C 10077.26273449 .00015767 00000-0 34489-3 0 2420
2 35003 040.4603 035.3545 0023214 052.6333 307.6592 15.43458738 46650
CP6
1 35004U 09028D 10077.88156240 .00018080 00000-0 38839-3 0 2354
2 35004 040.4578 031.2524 0021708 059.3713 300.9257 15.43960321 46746
AEROCUB3
1 35005U 09028E 10077.29659161 .00036358 00000-0 73448-3 0 2500
2 35005 040.4727 035.0613 0019050 055.6861 304.5768 15.45542573 46658
DRAGNSAT
1 35690U 09038B 10076.22573662 .04717833 00000-0 27945-3 0 3177
2 35690 051.6207 315.5093 0003725 309.8010 050.2776 16.41595152 36566
POLLUX
1 35693U 09038E 10077.83488935 .00535022 16817-3 42843-3 0 3316
2 35693 051.6292 310.6138 0005521 229.4850 130.5752 16.13753378 36745
CASTOR
1 35694U 09038F 10077.86013633 .00051761 12122-4 17777-3 0 2304
2 35694 051.6378 319.3317 0004219 185.5808 174.5158 15.90196496 36636
METEOR-M
1 35865U 09049A 10077.28443062 .00000176 00000-0 10000-3 0 1522
2 35865 098.7699 131.6884 0001550 269.9410 090.1565 14.21828992 25807
RS-38
1 35869U 09049E 10077.82847054 .00000176 00000-0 10000-3 0 1558
2 35869 098.7689 132.2534 0003830 267.5762 092.4938 14.21977312 25884
